Flag for Germany Weather past 2 weeks in Dannenberg, Lower Saxony, Germany

Now
63 °F

Passing clouds.


Feels Like: 63 °F
Forecast: 48 / 64 °F
Wind: 10 mph from Northwest

Location: Mecklenburg-Vorpommern - Parchim

Current Time: Aug 23, 2014 at 6:19:48 PM

Latest Report: Aug 23, 2014 at 5:50 PM


Visibility: N/A

Pressure: 29.86 "Hg

Humidity: 56%

Dew point: 46 °F

Location of DannenbergLocation

Historic Weather in Dannenberg — Graph

°F

Dannenberg temperature yesterday

Maximum temperature yesterday: 66 °F (at 12:20 PM)
Minimum temperature yesterday: 52 °F (at 6:20 AM)
Average temperature yesterday: 61 °F

Past Weeks' High & Low Weather Summary

 TemperatureHumidityPressure
High77 °F (Aug 8, 5:20 PM)100% (Aug 9, 10:50 AM)29.98 "Hg (Aug 9, 10:50 AM)
Low45 °F (Aug 21, 6:20 AM)44% (Aug 8, 5:20 PM)29.50 "Hg (Aug 18, 1:50 PM)
Average63 °F76%29.80 "Hg
* Reported Aug 8 5:20 PM — Aug 23 5:20 PM, Dannenberg, Weather by CustomWeather, © 2014

Note: Actual official high and low records may vary slightly from our data, if they occured in-between our weather recording intervals... More about our weather records

Advertising

Dannenberg weather history for previous 24 hours

 ConditionsComfort  
Time TempWeatherWind HumidityBarometerVisibility
5:20 PM
Aug 23
64 °FSunny.12 mph52%29.83 "Hg10 mi
4:50 PM64 °FPassing clouds.12 mph49%29.83 "HgN/A
4:20 PM64 °FPassing clouds.13 mph49%29.83 "HgN/A
3:50 PM64 °FSunny.17 mph49%29.86 "Hg10 mi
3:20 PM64 °FPassing clouds.14 mph49%29.83 "HgN/A
2:50 PM63 °FScattered clouds.14 mph52%29.86 "HgN/A
2:20 PM64 °FScattered clouds.15 mph56%29.83 "HgN/A
1:50 PM64 °FScattered clouds.17 mph56%29.86 "HgN/A
1:20 PM63 °FScattered clouds.13 mph64%29.86 "HgN/A
12:50 PM61 °FScattered clouds.16 mph68%29.86 "HgN/A
12:20 PM61 °FScattered clouds.15 mph72%29.86 "HgN/A
11:50 AM59 °FScattered clouds.16 mph77%29.86 "HgN/A
11:20 AM59 °FScattered clouds.12 mph82%29.86 "HgN/A
10:50 AM57 °FPartly sunny.12 mph88%29.86 "HgN/A
10:20 AM55 °FPartly sunny.10 mph94%29.86 "HgN/A
9:50 AM55 °FPartly sunny.10 mph94%29.86 "HgN/A
9:20 AM54 °FPartly sunny.10 mph100%29.86 "HgN/A
8:50 AM54 °FPartly sunny.10 mph94%29.83 "HgN/A
8:20 AM52 °FPartly sunny.12 mph100%29.83 "HgN/A
7:50 AM52 °FPartly sunny.9 mph100%29.83 "HgN/A
7:20 AM52 °FPartly sunny.10 mph100%29.83 "HgN/A
6:50 AM52 °FPassing clouds.10 mph100%29.83 "HgN/A
6:50 PM
Aug 22
64 °FSunny.13 mph52%29.80 "Hg10 mi
6:20 PM64 °FSunny.14 mph52%29.80 "Hg10 mi
Weather by CustomWeather, © 2014

See weather overviewHow to use our weather pages